Tracking 18840 objects as of 19-November-2017
HD Live streaming from Space Station
objects crossing your sky now

CXBN-2

Track CXBN-2 now!
10-day predictions
CXBN-2 is classified as:


NORAD ID: 42704
Int'l Code: 1998-067LM
Perigee: 389.2 km
Apogee: 392.7 km
Inclination: 51.6 °
Period: 92.2 minutes
Semi major axis: 6761 km
RCS: Unknown
Launch date: November 20, 1998
Source: United States (US)
Launch site: TYURATAM MISSILE AND SPACE COMPLEX (TTMTR)
Uplink (MHz):
Downlink (MHz): 437.075
Beacon (MHz):
Mode: 9600bps FSK
Call sign:
Status:

aabbcc
Your satellite tracking list
Your tracking list is empty




NASA's NSSDC Master Catalog

Two Line Element Set (TLE):
1 42704U 98067LM  17323.31377159  .00021185  00000-0  24964-3 0  9994
2 42704  51.6390 340.4003 0002578  84.3475 275.7812 15.61325917 29047
Source of the keplerian elements: AFSPC